Flag for Canada Weather past 2 weeks in MD of Lunenburg, Nova Scotia, Canada

Now
55 °F

Cool.


Feels Like: 55 °F
Forecast: 52 / 79 °F
Wind: 5 mph from North

Location: McNabs Island - AUT

Current Time: Sep 2, 2015 at 12:01:28 AM

Latest Report: Sep 1, 2015 at 11:00 PM


Visibility: N/A

Pressure: 29.99 "Hg

Humidity: 83%

Dew point: 50 °F

Location of MD of LunenburgLocation

Historic Weather in MD of Lunenburg — Graph

°F

MD of Lunenburg temperature yesterday

Maximum temperature yesterday: 69 °F (at 2:00 PM)
Minimum temperature yesterday: 55 °F (at 11:00 PM)
Average temperature yesterday: 65 °F

Past Weeks' High & Low Weather Summary

 TemperatureHumidityPressure
High81 °F (Aug 25, 1:00 PM)100% (Aug 19, 11:00 PM)30.23 "Hg (Aug 19, 11:00 PM)
Low55 °F (Sep 1, 11:00 PM)42% (Aug 28, 6:00 PM)29.66 "Hg (Aug 31, 8:00 PM)
Average68 °F87%30.00 "Hg
* Reported Aug 17 11:00 PM — Sep 1 11:00 PM, MD of Lunenburg, Weather by CustomWeather, © 2015

Note: Actual official high and low records may vary slightly from our data, if they occured in-between our weather recording intervals... More about our weather records

Advertising

MD of Lunenburg weather history for previous 24 hours

 ConditionsComfort  
Time TempWeatherWind HumidityBarometerVisibility
11:00 PM
Tue, Sep 1
55 °FCool.5 mph83%29.99 "HgN/A
10:00 PM57 °FCool.3 mph82%29.99 "HgN/A
9:00 PM59 °FCool.5 mph78%29.98 "HgN/A
8:00 PM61 °FCool.6 mph72%29.96 "HgN/A
7:00 PM64 °FMild.7 mph63%29.95 "HgN/A
6:00 PM67 °FMild.8 mph59%29.93 "HgN/A
5:00 PM67 °FMild.10 mph60%29.92 "HgN/A
4:00 PM68 °FMild.8 mph57%29.90 "HgN/A
3:00 PM67 °FMild.13 mph60%29.89 "HgN/A
2:00 PM69 °FMild.12 mph56%29.89 "HgN/A
1:00 PM67 °FMild.12 mph58%29.88 "HgN/A
12:00 PM68 °FMild.9 mph61%29.87 "HgN/A
11:00 AM65 °FMild.10 mph64%29.87 "HgN/A
10:00 AM65 °FMild.10 mph66%29.85 "HgN/A
9:00 AM63 °FMild.13 mph69%29.84 "HgN/A
8:00 AM63 °FMild.13 mph72%29.82 "HgN/A
7:00 AM64 °FMild.12 mph74%29.79 "HgN/A
6:00 AM65 °FMild.12 mph72%29.75 "HgN/A
5:00 AM66 °FMild.7 mph71%29.73 "HgN/A
4:00 AM66 °FMild.9 mph71%29.71 "HgN/A
3:00 AM68 °FMild.8 mph67%29.70 "HgN/A
2:00 AM68 °FMild.5 mph73%29.69 "HgN/A
1:00 AM69 °FMild.6 mph78%29.69 "HgN/A
12:00 AM69 °FMild.6 mph78%29.67 "HgN/A
Weather by CustomWeather, © 2015

See weather overviewHow to use our weather pages